{"data":{"norad_id":62669,"intl_designator":"2025-009BN","name":"JAY-D1","alt_names":[],"object_type":"PAYLOAD","status":"ACTIVE","operator":null,"country":"CA","launch_date":"2025-01-14","launch_site_code":"AFWTR","launch_vehicle":null,"mission":null,"orbit_class":"UNKNOWN","rcs_meters":null,"size_class":null,"mass_kg":null,"dimensions":null,"purposes":[],"wikipedia_slug":null,"has_3d_model":false,"image_url":null,"decayed_at":null,"tle_current":{"epoch":"2026-09-22T20:09:22.604544Z","epoch_age_seconds":117427,"freshness":"FRESH","line1":"1 62669U 25009BN  26265.83984496  .00002470  00000+0  10833-3 0  9997","line2":"2 62669  97.3969 343.7339 0005303  17.0332 343.1082 15.22900451151235","mean_motion":15.22900451,"eccentricity":0.0005303,"inclination_deg":97.3969,"raan_deg":343.7339,"arg_perigee_deg":17.0332,"mean_anomaly_deg":343.1082,"bstar":0.00010833,"rev_number":15123,"period_min":94.556410371698,"perigee_km":493.45128082124,"apogee_km":500.74315423235,"semimajor_km":6875.2342175268,"source":"CELESTRAK","updated_at":"2026-09-23T09:00:21.544977Z"}}}